Location: Unspecified
(43.3830°N, 0.0000°E)
Time: 00:34:54
(UTC+00:00)

Vanguard 2 - Pass Details

Date: 19 June 2019
Orbit: 553 x 2938 km, 32.9° (Epoch: 22 July)

Event Time Altitude Azimuth Distance (km) Brightness Sun altitude
Rises 15:28:49 0° 270° (W) 5,382 12.6 43.2°
Reaches altitude 10° 15:33:11 10° 256° (WSW) 4,749 12.7 42.4°
Maximum altitude 15:42:46 22° 213° (SSW) 4,424 12.1 40.7°
Drops below altitude 10° 15:54:15 10° 171° (S) 5,732 12.0 38.6°
Sets 16:00:27 0° 158° (SSE) 6,773 12.2 37.5°
